Content
SEND FEEDBACK

Daily
Averages
Monthly
Summary
United Kingdom

PORTLAND, ENGLAND


Home > Europe > United Kingdom > England
Elevation: 10 feet     Latitude: 50 34N     Longitude: 002 27W

WEATHER
 
SELECT A DAY
Number of Records: 258,746;   Date Range: 7/1/96 - 10/24/14
 
SHARE

PRINT THIS DATA

[ ← Previous Day ]
WEATHER ALMANAC - SEPTEMBER 15, 2013
[ Next Day → ]
[ °C ]   °F
Weather ElementAverageHighLow
Temperature54.4 °F61 °F (6:50 pm)37.4 °F (6:50 am)
Dewpoint50.6 °F60.8 °F (6:50 pm)35.6 °F (6:50 am)
Humidity87.3 %100 % (4:50 am)66 % (9:50 am)
Barometer29.80 in30.04 in (4:50 am)29.62 in (5:50 pm)
Wind Speed12.2 mph23 mph (4:50 pm)
Wind Gust36.8 mph (5:50 pm)
Weather ElementAverage
Visibility6 mi
Wind DirectionSSW (196 °)

Weather ElementTotal
Precipitation---
Heating Degree Days15.8 (Base 65)
Averaged from 43 records on September 15, 2013
WEATHER CONDITIONS BREAKOUT
WIND DIRECTION BREAKOUT
WEATHER BY HOUR - SEPTEMBER 15, 2013
[ °C ]   °F
Local TimeTemperatureDewpointHumidityBarometerVisibilityWind DirectionWind SpeedGust SpeedPrecipitationEventsConditions
4:50 AM39.2 °F39.2 °F100 %30.04 in5.0 miCalm
5:20 AM39.2 °F39.2 °F100 %30.04 in3.1 miCalmMist
5:50 AM39.2 °F37.4 °F93 %30.01 in2.8 miCalmMist
6:20 AM39.2 °F37.4 °F93 %30.01 in1.6 miCalmFogMist
6:50 AM37.4 °F35.6 °F93 %30.01 in0.3 miCalmFogPatches of Fog
7:20 AM37.4 °F37.4 °F100 %29.98 in6.2 miCalmFogPatches of Fog
7:50 AM41.0 °F39.2 °F93 %29.98 in5.6 miNorth (10°)1.2 mphFogShallow Fog
8:20 AM44.6 °F44.6 °F100 %29.98 inCalmClear
8:50 AM50.0 °F50.0 °F100 %29.98 inVariable2.3 mphClear
9:20 AM55.4 °F50.0 °F82 %29.95 inWSW (250°)8.1 mphClear
9:50 AM57.2 °F48.2 °F72 %29.95 inWSW (250°)10.4 mphClear
9:50 AM57.0 °F49.0 °F66 %29.96 in17.0 miWSW (250°)9.2 mphMostly Cloudy
10:20 AM59.0 °F48.2 °F67 %29.92 inWSW (240°)10.4 mphClear
10:50 AM57.2 °F48.2 °F72 %29.92 inWSW (240°)15.0 mphClear
11:20 AM59.0 °F48.2 °F67 %29.92 in6.2 miWSW (240°)13.8 mphPartly Cloudy
11:50 AM59.0 °F48.2 °F67 %29.89 in6.2 miWSW (240°)16.1 mphPartly Cloudy
12:20 PM59.0 °F48.2 °F67 %29.86 in6.2 miWSW (240°)18.4 mphScattered Clouds
12:50 PM59.0 °F51.0 °F67 %29.86 in16.0 miSW (230°)16.1 mphScattered Clouds
12:50 PM59.0 °F50.0 °F72 %29.86 in6.2 miSW (230°)16.1 mphScattered Clouds
1:20 PM59.0 °F51.8 °F77 %29.83 in6.2 miSW (230°)18.4 mphRainRain
1:50 PM59.0 °F53.6 °F82 %29.80 in6.2 miSW (230°)17.3 mph28.8 mphMostly Cloudy
2:20 PM59.0 °F53.6 °F82 %29.80 in6.2 miSW (230°)17.3 mphMostly Cloudy
2:50 PM57.2 °F55.4 °F94 %29.77 in6.2 miSW (230°)18.4 mph29.9 mphRainLight Rain
3:20 PM57.2 °F55.4 °F94 %29.74 in6.2 miSW (230°)17.3 mph28.8 mphRainLight Rain
3:50 PM58.0 °F56.0 °F92 %29.73 in5.0 miSW (230°)19.6 mphRainLight Rain
3:50 PM59.0 °F57.2 °F94 %29.71 in6.2 miSW (230°)19.6 mph31.1 mphRainLight Rain
4:20 PM59.0 °F57.2 °F94 %29.71 inSW (230°)19.6 mph31.1 mphRainLight Rain
4:50 PM59.0 °F57.2 °F94 %29.68 in5.0 miSW (230°)23.0 mph35.7 mphRainLight Rain
5:20 PM59.0 °F57.2 °F94 %29.65 in6.2 miWSW (240°)20.7 mph32.2 mphRainLight Rain
5:50 PM60.8 °F59.0 °F94 %29.62 in6.2 miWSW (240°)20.7 mph36.8 mphRainLight Rain
6:20 PM60.8 °F59.0 °F94 %29.62 in4.3 miWSW (240°)20.7 mph34.5 mphRainLight Rain
6:50 PM60.8 °F60.8 °F100 %29.62 in3.7 miWSW (240°)19.6 mph32.2 mphRainLight Rain
6:50 PM61.0 °F60.0 °F95 %29.62 in3.0 miWSW (240°)18.4 mphRainLight Rain
7:20 PM60.8 °F60.8 °F100 %29.62 in3.7 miWSW (250°)16.1 mphRainLight Rain
7:50 PM60.8 °F60.8 °F100 %29.62 in3.7 miWest (260°)15.0 mphRainLight Rain
8:20 PM57.2 °F55.4 °F94 %29.62 in6.2 miNW (310°)12.7 mphRainLight Rain
8:50 PM57.2 °F55.4 °F94 %29.65 in6.2 miWNW (290°)12.7 mphScattered Clouds
9:50 PM55.4 °F51.8 °F88 %29.65 in6.2 miWest (280°)10.4 mphScattered Clouds
9:50 PM54.0 °F51.0 °F88 %29.67 in12.0 miWest (270°)9.2 mphPartly Cloudy
10:20 PM55.4 °F51.8 °F88 %29.65 in6.2 miWest (270°)11.5 mphPartly Cloudy
10:50 PM53.6 °F50.0 °F88 %29.65 in6.2 miWest (260°)9.2 mphPartly Cloudy
11:20 PM53.6 °F48.2 °F82 %29.68 in6.2 miWest (270°)11.5 mphPartly Cloudy
11:50 PM53.6 °F48.2 °F82 %29.68 in6.2 miWest (280°)10.4 mphPartly Cloudy
Hourly data recorded from EGHH, located miles away from Portland, England







STORIES FROM OUR PARTNERS